This is the latest recevied weather packets stored in our database for station/object OE-11121. If no packets are shown the sender has not sent any weather packets the latest 10 day(s).
| Time | Temp. | Humidity | Pressure | Rain* | Wind** | Luminosity | Snow |
|---|---|---|---|---|---|---|---|
| 1787832706 | 30° C | 43% | 1010.7 hPa | 0 mm | - | 757 W/m² | - |
| 1787832333 | 29.44° C | 45% | 1010.9 hPa | 0 mm | - | 781 W/m² | - |
| 1787831732 | 28.89° C | 48% | 1011 hPa | 0 mm | - | 577 W/m² | - |
| 1787830906 | 28.33° C | 47% | 1011.6 hPa | 0 mm | - | 553 W/m² | - |
| 1787830532 | 28.33° C | 46% | 1011.8 hPa | 0 mm | - | 577 W/m² | - |
| 1787829932 | 27.78° C | 44% | 1012.2 hPa | 0 mm | - | 601 W/m² | - |
| 1787829106 | 27.78° C | 48% | 1012.3 hPa | 0 mm | - | 745 W/m² | - |
| 1787828733 | 27.22° C | 46% | 1012.4 hPa | 0 mm | - | 769 W/m² | - |
| 1787828133 | 27.22° C | 50% | 1012.8 hPa | 0 mm | - | 781 W/m² | - |
| 1787827305 | 26.67° C | 46% | 1013.1 hPa | 0 mm | - | 769 W/m² | - |
| 1787826932 | 26.67° C | 52% | 1013.4 hPa | 0 mm | - | 745 W/m² | - |
| 1787826333 | 26.11° C | 53% | 1013.6 hPa | 0 mm | - | 733 W/m² | - |
| 1787825506 | 25.56° C | 52% | 1013.7 hPa | 0 mm | - | 721 W/m² | - |
| 1787825133 | 25° C | 52% | 1014 hPa | 0 mm | - | 733 W/m² | - |
| 1787824533 | 25° C | 54% | 1014.1 hPa | 0 mm | - | 709 W/m² | - |
| 1787823706 | 23.89° C | 56% | 1014.3 hPa | 0 mm | - | 685 W/m² | - |
| 1787823333 | 23.89° C | 60% | 1014.5 hPa | 0 mm | - | 685 W/m² | - |
| 1787822732 | 23.33° C | 62% | 1014.8 hPa | 0 mm | - | 673 W/m² | - |
| 1787821906 | 22.78° C | 64% | 1015 hPa | 0 mm | - | 649 W/m² | - |
| 1787821532 | 22.78° C | 63% | 1015.2 hPa | 0 mm | - | 565 W/m² | - |
| 1787820933 | 21.67° C | 66% | 1015.5 hPa | 0 mm | - | 505 W/m² | - |
| 1787820106 | 21.67° C | 66% | 1015.3 hPa | 0 mm | - | 589 W/m² | - |
| 1787819733 | 21.11° C | 71% | 1015.4 hPa | 0 mm | - | 361 W/m² | - |
| 1787819133 | 21.11° C | 71% | 1015.5 hPa | 0 mm | - | 397 W/m² | - |
| 1787818306 | 20.56° C | 75% | 1015.7 hPa | 0 mm | - | 264 W/m² | - |
* Rain latest hour (hover to see other rain measurements)
** Current wind speed in m/s (hover to see current wind gust speed)